Location: Observatoire du C�gep de Trois-Rivi�res � Champlain
(46.4753°N, 72.3231°W)
Time: 23:40:20
(UTC-04:00)

Amateur Radio Satellites - All Passes

Search period start: 16 October 2017 23:10
Search period end: 17 October 2017 23:10
Location: Observatoire du C�gep de Trois-Rivi�res � Champlain, 46.4753°N, 72.3231°W

Satellite Date Start Highest point End Downlink Frequencies (MHz)
Time Altitude Azimuth
AIST 2D 16 Oct 23:17:27 23:19:50 17° 92° (E) 23:22:11 435.315
PRISM 16 Oct 23:18:55 23:23:03 74° 104° (ESE) 23:27:10 437.425
LO-87 16 Oct 23:32:47 23:36:14 45° 261° (W) 23:39:44 145.935 - 145.965
O/OREOS (USA 219) 16 Oct 23:41:48 23:44:24 15° 314° (NW) 23:47:03 437.305
SPROUT 16 Oct 23:44:24 23:48:19 37° 69° (ENE) 23:52:18 437.525
ESTCUBE 1 16 Oct 23:49:14 23:53:38 53° 260° (W) 23:58:03 437.505/2401.250
YUBILEINY 16 Oct 23:56:17 23:59:18 12° 290° (WNW) 00:02:19 435.215
VELOX 1 16 Oct 23:57:22 00:01:24 37° 68° (ENE) 00:05:27 145.980
BEESAT 2 17 Oct 00:01:19 00:03:58 17° 248° (WSW) 00:06:35 435.950
UNISAT 6 17 Oct 00:09:31 00:12:50 20° 298° (WNW) 00:16:07 437.425
UKube-1 17 Oct 00:16:32 00:18:00 12° 57° (ENE) 00:19:28 .
EO-79 17 Oct 00:20:14 00:24:11 35° 97° (E) 00:28:05 145.935-145.965
POLYITAN 1 17 Oct 00:23:43 00:27:44 38° 98° (E) 00:31:42 437.675
TIGRISAT 17 Oct 00:25:59 00:28:42 16° 301° (WNW) 00:31:24 435.000
AO-85 17 Oct 00:40:55 00:43:06 13° 250° (WSW) 00:45:21 145.980
QB50P2 17 Oct 00:43:31 00:47:49 69° 102° (ESE) 00:52:03 145.880/145.840
AIST 2D 17 Oct 00:49:58 00:53:06 32° 289° (WNW) 00:56:13 435.315
NANOSAT C BR1 17 Oct 00:51:04 00:55:19 67° 101° (E) 00:59:32 145.865
PRISM 17 Oct 00:55:57 00:57:45 13° 301° (WNW) 00:59:33 437.425
DUCHIFAT 1 17 Oct 01:04:10 01:08:27 81° 104° (ESE) 01:12:41 145.980
RS-15 17 Oct 01:10:45 01:22:27 54° 113° (ESE) 01:34:08 29.354- 29.394
50 SAT 17 Oct 01:14:24 01:17:38 74° 75° (ENE) 01:20:55 437.505
DX 1 17 Oct 01:16:25 01:20:42 64° 73° (ENE) 01:25:01 434.975-435.025
SPROUT 17 Oct 01:20:55 01:24:20 23° 267° (W) 01:27:46 437.525
BUGSAT 1 17 Oct 01:28:18 01:32:19 39° 98° (E) 01:36:16 437.445
Gurwin Techsat 1B 17 Oct 01:31:16 01:34:41 17° 89° (E) 01:38:07 435.225
Oscar 19 17 Oct 01:31:47 01:35:53 24° 93° (E) 01:39:56 437.125/150
MOZHAYETS 4 17 Oct 01:32:10 01:33:32 11° 56° (NE) 01:34:54
VELOX 1 17 Oct 01:34:23 01:37:56 24° 266° (W) 01:41:30 145.980
BEESAT 17 Oct 01:40:09 01:42:30 14° 57° (ENE) 01:44:50 436.000
UKube-1 17 Oct 01:49:02 01:53:20 90° 237° (WSW) 01:57:40 .
EO-79 17 Oct 01:56:17 01:59:47 25° 295° (WNW) 02:03:15 145.935-145.965
POLYITAN 1 17 Oct 01:59:55 02:03:19 23° 295° (WNW) 02:06:41 437.675
QB50P2 17 Oct 02:20:45 02:23:03 14° 300° (WNW) 02:25:21 145.880/145.840
NANOSAT C BR1 17 Oct 02:28:10 02:30:30 15° 300° (WNW) 02:32:51 145.865
AO-7 17 Oct 02:29:03 02:31:25 11° 83° (E) 02:33:46 .
DUCHIFAT 1 17 Oct 02:41:43 02:43:29 12° 301° (WNW) 02:45:14 145.980
M-CUBED/EXP-1 PRIME 17 Oct 02:52:07 02:55:32 78° 291° (WNW) 02:59:11 437.505
DX 1 17 Oct 02:55:06 02:57:19 14° 270° (W) 02:59:32 434.975-435.025
ITUPSAT 1 17 Oct 02:56:33 03:01:17 61° 72° (ENE) 03:06:03 437.325
BUGSAT 1 17 Oct 03:04:07 03:07:26 22° 296° (WNW) 03:10:42 437.445
MOZHAYETS 4 17 Oct 03:05:15 03:09:53 78° 75° (ENE) 03:14:33
CUBESAT XI-V 17 Oct 03:07:11 03:10:40 21° 63° (ENE) 03:14:08 437.345
Gurwin Techsat 1B 17 Oct 03:09:52 03:15:11 72° 288° (WNW) 03:20:28 435.225
Oscar 19 17 Oct 03:10:31 03:15:27 49° 291° (WNW) 03:20:22 437.125/150
BEESAT 17 Oct 03:14:46 03:19:33 89° 231° (SW) 03:24:24 436.000
RS-15 17 Oct 03:22:48 03:34:59 60° 318° (NW) 03:47:05 29.354- 29.394
KKS-1 17 Oct 03:28:03 03:29:33 12° 57° (ENE) 03:31:04 437.445
ITAMSAT 1 17 Oct 03:34:56 03:38:57 22° 92° (E) 03:42:56 435.822/435.867
NO-84 17 Oct 03:46:53 03:49:30 16° 127° (SE) 03:52:07 435.350 FM
STARS 17 Oct 04:11:26 04:13:31 13° 58° (ENE) 04:15:37 437.465
AO-7 17 Oct 04:17:44 04:25:57 60° 104° (ESE) 04:34:07 .
ITUPSAT 1 17 Oct 04:36:21 04:39:31 17° 269° (W) 04:42:42 437.325
CUBESAT XI-V 17 Oct 04:43:13 04:47:42 49° 261° (W) 04:52:13 437.345
MOZHAYETS 4 17 Oct 04:45:35 04:47:36 13° 272° (W) 04:49:38
Gurwin Techsat 1B 17 Oct 04:52:04 04:54:12 12° 307° (NW) 04:56:21 435.225
BEESAT 17 Oct 04:56:34 04:58:01 11° 273° (W) 04:59:27 436.000
KKS-1 17 Oct 05:00:57 05:05:23 86° 79° (E) 05:09:52 437.445
ITAMSAT 1 17 Oct 05:13:38 05:18:44 56° 291° (WNW) 05:23:50 435.822/435.867
NO-84 17 Oct 05:22:09 05:26:27 83° 142° (SE) 05:30:36 435.350 FM
RS-15 17 Oct 05:39:50 05:50:39 33° 349° (N) 06:01:13 29.354- 29.394
STRAND 1 17 Oct 05:39:59 05:42:21 13° 55° (NE) 05:44:44 437.568
STARS 17 Oct 05:44:50 05:49:13 80° 255° (WSW) 05:53:40 437.465
DOVE 4 17 Oct 05:56:14 06:01:04 64° 101° (E) 06:06:08 437.250
XW-2C 17 Oct 06:00:22 06:02:37 15° 91° (E) 06:04:51 145.795 - 145.815
AO-7 17 Oct 06:10:58 06:18:23 38° 304° (NW) 06:25:48 .
HO-68 17 Oct 06:20:19 06:23:19 13° 84° (E) 06:26:18 435.675
O/OREOS (USA 219) 17 Oct 06:28:03 06:32:17 34° 56° (ENE) 06:36:29 437.305
KKS-1 17 Oct 06:41:43 06:42:34 10° 273° (W) 06:43:25 437.445
LilacSat-2 17 Oct 06:44:39 06:48:21 52° 100° (E) 06:52:01 437.200
XW-2F 17 Oct 06:47:44 06:51:23 49° 99° (E) 06:54:59 145.980 - 146.000
KAITUO 1B 17 Oct 06:52:41 06:56:14 43° 99° (E) 06:59:45 145.475/437.950
CUTE-I 17 Oct 06:54:55 07:00:09 49° 100° (E) 07:05:20 437.470
XW-2D 17 Oct 06:56:57 07:00:43 71° 102° (ESE) 07:04:26 145.860 - 145.880
CUTE 1.7 + AOD 2 17 Oct 06:58:57 07:01:41 17° 91° (E) 07:04:24 437.475
NO-84 17 Oct 07:00:26 07:04:14 31° 343° (NNW) 07:07:51 435.350 FM
XW-2B 17 Oct 07:10:16 07:14:03 83° 282° (WNW) 07:17:46 145.730 - 145.750
NUDT-PHONESAT 17 Oct 07:13:15 07:16:56 76° 101° (E) 07:20:35 437.300
SEEDS 17 Oct 07:13:50 07:16:14 15° 90° (E) 07:18:36 437.485
STRAND 1 17 Oct 07:15:35 07:20:42 80° 73° (ENE) 07:25:53 437.568
CUBEBUG 2 17 Oct 07:19:33 07:22:48 18° 90° (E) 07:25:59 437.445
FO-29 17 Oct 07:26:48 07:30:31 20° 57° (ENE) 07:34:23 435.910
XW-2C 17 Oct 07:33:27 07:37:02 43° 288° (WNW) 07:40:34 145.795 - 145.815
DOVE 4 17 Oct 07:34:58 07:38:20 19° 298° (WNW) 07:41:48 437.250
AAUSAT CUBESAT 2 17 Oct 07:49:11 07:51:46 16° 91° (E) 07:54:20 437.432
ZACube-1 17 Oct 07:53:03 07:54:44 12° 87° (E) 07:56:23 437.345
SO-50 17 Oct 07:53:12 07:57:29 46° 120° (ESE) 08:01:48 436.795
RS-15 17 Oct 07:56:12 08:07:25 39° 24° (NNE) 08:18:08 29.354- 29.394
UWE-3 17 Oct 08:05:07 08:09:08 29° 94° (E) 08:13:01 435.000/436.395/437.385
HO-68 17 Oct 08:05:08 08:12:21 69° 104° (ESE) 08:19:31 435.675
AO-7 17 Oct 08:06:39 08:08:48 11° 328° (NNW) 08:10:59 .
O/OREOS (USA 219) 17 Oct 08:07:36 08:11:37 30° 255° (WSW) 08:15:37 437.305
XW-2A 17 Oct 08:12:34 08:15:40 34° 97° (E) 08:18:44 145.665 - 145.685
TIGRISAT 17 Oct 08:15:24 08:17:16 12° 57° (ENE) 08:19:10 435.000
LilacSat-2 17 Oct 08:20:11 08:22:13 14° 297° (WNW) 08:24:15 437.200
XW-2F 17 Oct 08:23:01 08:25:06 15° 297° (WNW) 08:27:12 145.980 - 146.000
KAITUO 1B 17 Oct 08:27:38 08:29:53 16° 296° (WNW) 08:32:08 145.475/437.950
XW-2D 17 Oct 08:33:17 08:34:20 11° 299° (WNW) 08:35:21 145.860 - 145.880
CUTE 1.7 + AOD 2 17 Oct 08:33:44 08:37:48 49° 288° (WNW) 08:41:51 437.475
Oscar 11 17 Oct 08:35:18 08:38:29 20° 92° (E) 08:41:39 .
CUTE-I 17 Oct 08:35:29 08:39:55 27° 298° (WNW) 08:44:21 437.470
NO-84 17 Oct 08:39:11 08:42:30 24° 3° (N) 08:45:40 435.350 FM
SEEDS 17 Oct 08:48:10 08:52:15 55° 287° (WNW) 08:56:19 437.485
CUBEBUG 2 17 Oct 08:55:09 08:59:46 54° 288° (WNW) 09:04:14 437.445
PCSat 17 Oct 08:57:19 09:02:18 39° 113° (ESE) 09:07:19 145.827
STRAND 1 17 Oct 08:57:46 09:00:31 14° 272° (W) 09:03:16 437.568
YUBILEINY 17 Oct 09:04:25 09:11:57 35° 83° (E) 09:19:30 435.215
AO-73 17 Oct 09:07:23 09:11:47 61° 100° (E) 09:16:01 145.935
FO-29 17 Oct 09:09:53 09:15:02 66° 258° (WSW) 09:20:33 435.910
AAUSAT CUBESAT 2 17 Oct 09:23:30 09:27:30 50° 288° (WNW) 09:31:28 437.432
ZACube-1 17 Oct 09:27:08 09:31:35 76° 285° (WNW) 09:35:54 437.345
Tancredo 1 17 Oct 09:32:28 09:33:30 13° 140° (SE) 09:34:31 437.200
UNISAT 6 17 Oct 09:32:44 09:37:19 65° 73° (ENE) 09:42:00 437.425
SO-50 17 Oct 09:34:12 09:38:07 29° 320° (NW) 09:42:05 436.795
UWE-3 17 Oct 09:41:29 09:45:34 32° 293° (WNW) 09:49:32 435.000/436.395/437.385
XW-2A 17 Oct 09:46:00 09:48:08 16° 295° (WNW) 09:50:14 145.665 - 145.685
TIGRISAT 17 Oct 09:48:33 09:53:11 85° 75° (ENE) 09:57:55 435.000
DELFI C3 17 Oct 09:50:56 09:54:19 27° 95° (E) 09:57:44 145.870
HO-68 17 Oct 09:53:36 09:59:32 29° 304° (NW) 10:05:28 435.675
AIST 2D 17 Oct 09:55:44 09:56:43 11° 62° (ENE) 09:57:40 435.315
EO-88 17 Oct 09:56:18 09:58:35 16° 92° (E) 10:00:50 145.990 - 145.960
Max Valier Satellite 17 Oct 09:57:08 10:00:05 22° 94° (E) 10:03:00 145.860
RS-15 17 Oct 10:09:40 10:21:48 85° 54° (NE) 10:33:13 29.354- 29.394
PRISM 17 Oct 10:10:18 10:14:21 75° 74° (ENE) 10:18:24 437.425
Oscar 11 17 Oct 10:10:44 10:14:50 43° 289° (WNW) 10:18:53 .
NO-84 17 Oct 10:16:54 10:20:40 43° 25° (NNE) 10:24:07 435.350 FM
DUCHIFAT 1 17 Oct 10:26:42 10:27:16 10° 57° (ENE) 10:27:51 145.980
PCSat 17 Oct 10:40:38 10:45:42 39° 313° (NW) 10:50:49 145.827
AO-73 17 Oct 10:44:46 10:47:30 16° 299° (WNW) 10:50:13 145.935
LO-87 17 Oct 10:58:26 10:59:46 12° 90° (E) 11:01:05 145.935 - 145.965
YUBILEINY 17 Oct 10:59:47 11:08:18 59° 285° (WNW) 11:16:56 435.215
Tancredo 1 17 Oct 11:03:22 11:05:12 45° 338° (NNW) 11:07:02 437.200
UNISAT 6 17 Oct 11:11:44 11:14:28 16° 271° (W) 11:17:17 437.425
EO-79 17 Oct 11:14:51 11:18:47 37° 69° (ENE) 11:22:44 145.935-145.965
POLYITAN 1 17 Oct 11:18:27 11:22:27 40° 70° (ENE) 11:26:29 437.675
DELFI C3 17 Oct 11:25:40 11:29:01 27° 293° (WNW) 11:32:23 145.870
AIST 2D 17 Oct 11:25:54 11:29:24 61° 259° (W) 11:32:53 435.315
TIGRISAT 17 Oct 11:28:50 11:30:30 12° 274° (W) 11:32:10 435.000
EO-88 17 Oct 11:29:00 11:32:25 38° 289° (WNW) 11:35:47 145.990 - 145.960
Max Valier Satellite 17 Oct 11:30:42 11:33:54 28° 291° (WNW) 11:37:05 145.860
nSIGHT-1 17 Oct 11:37:22 11:40:19 35° 143° (SE) 11:43:16 .
QB50P2 17 Oct 11:38:09 11:42:25 71° 73° (ENE) 11:46:42 145.880/145.840
ESTCUBE 1 17 Oct 11:39:05 11:42:51 26° 94° (E) 11:46:35 437.505/2401.250
NANOSAT C BR1 17 Oct 11:45:10 11:49:23 68° 74° (ENE) 11:53:39 145.865
PRISM 17 Oct 11:49:21 11:50:08 10° 272° (W) 11:50:55 437.425
NO-84 17 Oct 11:54:34 11:57:59 35° 226° (SW) 12:01:08 435.350 FM
DUCHIFAT 1 17 Oct 11:57:57 12:02:11 82° 74° (ENE) 12:06:28 145.980
ISS 17 Oct 12:00:57 12:04:07 49° 146° (SSE) 12:07:17 437.550
M-CUBED/EXP-1 PRIME 17 Oct 12:07:36 12:09:53 17° 60° (ENE) 12:12:07 437.505
BUGSAT 1 17 Oct 12:20:10 12:24:03 39° 69° (ENE) 12:28:00 437.445
RS-15 17 Oct 12:23:17 12:32:49 30° 257° (WSW) 12:42:00 29.354- 29.394
PCSat 17 Oct 12:28:30 12:30:41 12° 336° (NNW) 12:32:53 145.827
LO-87 17 Oct 12:29:55 12:33:30 54° 287° (WNW) 12:37:03 145.935 - 145.965
Tancredo 1 17 Oct 12:36:01 12:37:21 16° 357° (N) 12:38:41 437.200
BEESAT 3 17 Oct 12:41:38 12:44:51 24° 115° (ESE) 12:48:06 437.485
Oscar 19 17 Oct 12:50:56 12:55:50 46° 68° (ENE) 13:00:45 437.125/150
EO-79 17 Oct 12:51:14 12:54:38 23° 267° (W) 12:58:04 145.935-145.965
Gurwin Techsat 1B 17 Oct 12:54:30 12:59:17 36° 66° (ENE) 13:04:07 435.225
POLYITAN 1 17 Oct 12:55:06 12:58:23 21° 267° (W) 13:01:42 437.675
SPROUT 17 Oct 13:02:32 13:06:44 48° 99° (E) 13:10:53 437.525
YUBILEINY 17 Oct 13:03:15 13:07:25 14° 310° (NW) 13:11:37 435.215
nSIGHT-1 17 Oct 13:13:25 13:16:32 48° 342° (NNW) 13:19:40 .
ESTCUBE 1 17 Oct 13:15:38 13:19:43 35° 292° (WNW) 13:23:47 437.505/2401.250
QB50P2 17 Oct 13:16:57 13:18:41 12° 272° (W) 13:20:26 145.880/145.840
AO-85 17 Oct 13:18:39 13:20:08 12° 109° (ESE) 13:21:36 145.980
VELOX 1 17 Oct 13:20:19 13:24:39 50° 100° (E) 13:28:58 145.980
NANOSAT C BR1 17 Oct 13:23:41 13:25:34 13° 271° (W) 13:27:26 145.865
AO-7 17 Oct 13:29:18 13:35:54 27° 50° (NE) 13:42:29 .
UKube-1 17 Oct 13:35:05 13:36:49 12° 89° (E) 13:38:34 .
ISS 17 Oct 13:37:32 13:40:39 41° 345° (NNW) 13:43:48 437.550
DUCHIFAT 1 17 Oct 13:37:43 13:38:25 10° 273° (W) 13:39:08 145.980
M-CUBED/EXP-1 PRIME 17 Oct 13:41:01 13:44:10 33° 256° (WSW) 13:47:12 437.505
BEESAT 2 17 Oct 13:53:16 13:57:01 39° 119° (ESE) 14:00:49 435.950
BUGSAT 1 17 Oct 13:56:20 13:59:33 21° 267° (W) 14:02:48 437.445
50 SAT 17 Oct 14:02:53 14:06:04 42° 100° (E) 14:09:13 437.505
Tancredo 1 17 Oct 14:07:54 14:09:32 25° 15° (NNE) 14:11:10 437.200
BEESAT 3 17 Oct 14:18:23 14:22:12 41° 313° (NW) 14:26:03 437.485
Oscar 19 17 Oct 14:31:04 14:35:20 26° 266° (W) 14:39:39 437.125/150
Gurwin Techsat 1B 17 Oct 14:34:25 14:39:14 35° 264° (W) 14:44:05 435.225
DX 1 17 Oct 14:37:39 14:42:03 83° 105° (ESE) 14:46:26 434.975-435.025
SPROUT 17 Oct 14:39:13 14:42:17 19° 297° (WNW) 14:45:20 437.525
SO-50 17 Oct 14:41:47 14:45:07 19° 33° (NNE) 14:48:28 436.795
nSIGHT-1 17 Oct 14:50:21 14:53:16 31° 2° (N) 14:56:11 .
ITAMSAT 1 17 Oct 14:55:13 15:00:06 44° 67° (ENE) 15:05:02 435.822/435.867
AO-85 17 Oct 14:56:01 14:59:53 72° 308° (NW) 15:03:54 145.980
ITUPSAT 1 17 Oct 14:56:11 14:58:10 12° 88° (E) 15:00:10 437.325
VELOX 1 17 Oct 14:57:35 15:00:45 20° 298° (WNW) 15:03:56 145.980
MOZHAYETS 4 17 Oct 14:58:50 15:01:27 15° 89° (E) 15:04:04
UKube-1 17 Oct 15:09:01 15:13:20 73° 287° (WNW) 15:17:39 .
BEESAT 17 Oct 15:12:58 15:16:19 19° 91° (E) 15:19:39 436.000
ISS 17 Oct 15:14:37 15:17:37 32° 5° (N) 15:20:37 437.550
AO-7 17 Oct 15:19:28 15:27:48 85° 251° (WSW) 15:36:10 .
BEESAT 2 17 Oct 15:31:21 15:34:51 27° 318° (NW) 15:38:23 435.950
50 SAT 17 Oct 15:36:26 15:38:03 13° 297° (WNW) 15:39:39 437.505
Tancredo 1 17 Oct 15:39:37 15:41:18 29° 214° (SSW) 15:42:57 437.200
PCSat 17 Oct 15:59:34 16:02:49 16° 30° (NNE) 16:06:04 145.827
BEESAT 3 17 Oct 16:00:15 16:00:49 10° 335° (NNW) 16:01:22 437.485
DX 1 17 Oct 16:15:39 16:17:36 13° 302° (WNW) 16:19:32 434.975-435.025
SO-50 17 Oct 16:21:35 16:26:13 90° 63° (ENE) 16:30:52 436.795
nSIGHT-1 17 Oct 16:26:46 16:29:56 59° 22° (NNE) 16:33:07 .
ITUPSAT 1 17 Oct 16:31:48 16:36:38 83° 286° (WNW) 16:41:25 437.325
MOZHAYETS 4 17 Oct 16:34:30 16:39:04 65° 287° (WNW) 16:43:35
ITAMSAT 1 17 Oct 16:35:20 16:39:43 27° 266° (W) 16:44:09 435.822/435.867
CUBESAT XI-V 17 Oct 16:36:52 16:41:01 32° 96° (E) 16:45:08 437.345
AO-85 17 Oct 16:38:54 16:41:03 14° 330° (NNW) 16:43:14 145.980
CUTE-I 17 Oct 16:42:02 16:45:25 17° 57° (ENE) 16:48:48 437.470
XW-2C 17 Oct 16:45:01 16:46:40 12° 62° (ENE) 16:48:18 145.795 - 145.815
BEESAT 17 Oct 16:49:45 16:54:26 56° 289° (WNW) 16:59:06 436.000
KKS-1 17 Oct 16:50:37 16:52:52 14° 89° (E) 16:55:06 437.445
ISS 17 Oct 16:51:08 16:54:25 76° 24° (NNE) 16:57:42 437.550
HO-68 17 Oct 16:52:39 16:56:45 16° 47° (NE) 17:00:52 435.675
DOVE 4 17 Oct 17:04:39 17:08:48 82° 77° (ENE) 17:13:09 437.250
AO-7 17 Oct 17:16:11 17:21:44 19° 271° (W) 17:27:20 .
LilacSat-2 17 Oct 17:28:48 17:32:22 37° 71° (ENE) 17:35:56 437.200
XW-2F 17 Oct 17:30:51 17:34:18 34° 70° (ENE) 17:37:45 145.980 - 146.000
STARS 17 Oct 17:32:33 17:35:10 15° 90° (E) 17:37:46 437.465
KAITUO 1B 17 Oct 17:35:00 17:38:18 30° 69° (ENE) 17:41:37 145.475/437.950
XW-2D 17 Oct 17:40:17 17:43:58 49° 73° (ENE) 17:47:38 145.860 - 145.880
PCSat 17 Oct 17:42:02 17:47:25 58° 53° (NE) 17:52:44 145.827
XW-2B 17 Oct 17:53:30 17:57:17 67° 74° (ENE) 18:01:04 145.730 - 145.750
CUTE 1.7 + AOD 2 17 Oct 17:54:18 17:57:09 18° 63° (ENE) 18:00:00 437.475
NUDT-PHONESAT 17 Oct 17:54:24 17:58:00 48° 73° (ENE) 18:01:36 437.300
nSIGHT-1 17 Oct 18:03:18 18:06:03 26° 220° (SW) 18:08:48 .
SO-50 17 Oct 18:03:59 18:06:00 13° 251° (WSW) 18:08:01 436.795
SEEDS 17 Oct 18:08:16 18:10:46 16° 62° (ENE) 18:13:17 437.485
ITUPSAT 1 17 Oct 18:11:39 18:13:41 13° 304° (NW) 18:15:42 437.325
CUBESAT XI-V 17 Oct 18:14:20 18:18:19 30° 293° (WNW) 18:22:18 437.345
XW-2C 17 Oct 18:16:34 18:20:21 63° 259° (W) 18:24:09 145.795 - 145.815
CUTE-I 17 Oct 18:19:29 18:24:48 81° 256° (WSW) 18:30:11 437.470
CUBEBUG 2 17 Oct 18:19:51 18:23:25 22° 63° (ENE) 18:27:02 437.445
KKS-1 17 Oct 18:25:25 18:29:54 70° 286° (WNW) 18:34:21 437.445
ISS 17 Oct 18:28:10 18:30:36 19° 223° (SW) 18:33:02 437.550
HO-68 17 Oct 18:36:08 18:43:12 66° 68° (ENE) 18:50:20 435.675
AAUSAT CUBESAT 2 17 Oct 18:42:07 18:44:38 16° 62° (ENE) 18:47:09 437.432
XW-2A 17 Oct 18:46:31 18:49:00 19° 67° (ENE) 18:51:30 145.665 - 145.685
ZACube-1 17 Oct 18:50:53 18:53:32 15° 60° (ENE) 18:56:11 437.345
LilacSat-2 17 Oct 19:04:05 19:06:47 18° 268° (W) 19:09:28 437.200
UWE-3 17 Oct 19:04:05 19:08:15 34° 68° (ENE) 19:12:27 435.000/436.395/437.385
XW-2F 17 Oct 19:05:44 19:08:31 19° 267° (W) 19:11:18 145.980 - 146.000
STARS 17 Oct 19:07:31 19:11:54 61° 288° (WNW) 19:16:16 437.465
KAITUO 1B 17 Oct 19:09:24 19:12:19 21° 266° (W) 19:15:14 145.475/437.950
YUBILEINY 17 Oct 19:10:26 19:16:41 21° 57° (ENE) 19:22:54 435.215
XW-2D 17 Oct 19:16:21 19:18:25 14° 270° (W) 19:20:28 145.860 - 145.880
STRAND 1 17 Oct 19:23:58 19:27:58 22° 92° (E) 19:31:57 437.568
PCSat 17 Oct 19:26:06 19:30:25 24° 252° (WSW) 19:34:43 145.827
CUTE 1.7 + AOD 2 17 Oct 19:28:29 19:32:36 50° 261° (W) 19:36:45 437.475
NUDT-PHONESAT 17 Oct 19:30:13 19:32:08 14° 270° (W) 19:34:03 437.300
XW-2B 17 Oct 19:31:17 19:31:53 10° 272° (W) 19:32:30 145.730 - 145.750
Oscar 11 17 Oct 19:32:36 19:35:58 22° 65° (ENE) 19:39:20 .
SEEDS 17 Oct 19:41:53 19:46:01 58° 260° (W) 19:50:09 437.485
CUBEBUG 2 17 Oct 19:55:10 19:59:40 49° 261° (W) 20:04:18 437.445
CUTE-I 17 Oct 20:04:03 20:05:42 11° 274° (W) 20:07:21 437.470
AO-73 17 Oct 20:04:38 20:09:08 65° 74° (ENE) 20:13:41 145.935
FO-29 17 Oct 20:15:25 20:19:44 17° 88° (E) 20:24:17 435.910
AAUSAT CUBESAT 2 17 Oct 20:15:38 20:19:40 54° 260° (W) 20:23:43 437.432
XW-2A 17 Oct 20:18:31 20:21:32 29° 263° (W) 20:24:35 145.665 - 145.685
ZACube-1 17 Oct 20:24:40 20:29:14 73° 258° (WSW) 20:33:51 437.345
HO-68 17 Oct 20:25:34 20:31:27 27° 268° (W) 20:37:23 435.675
BEESAT 2 17 Oct 20:31:38 20:33:29 13° 29° (NNE) 20:35:20 435.950
EO-88 17 Oct 20:37:37 20:38:55 12° 61° (ENE) 20:40:14 145.990 - 145.960
DELFI C3 17 Oct 20:38:52 20:41:57 23° 66° (ENE) 20:45:04 145.870
Max Valier Satellite 17 Oct 20:38:56 20:41:20 16° 64° (ENE) 20:43:44 145.860
UWE-3 17 Oct 20:40:37 20:44:41 30° 266° (W) 20:48:49 435.000/436.395/437.385
O/OREOS (USA 219) 17 Oct 20:43:50 20:47:20 22° 102° (ESE) 20:50:52 437.305
BEESAT 3 17 Oct 20:55:00 20:58:43 36° 45° (NE) 21:02:21 437.485
STRAND 1 17 Oct 21:02:25 21:07:27 53° 290° (WNW) 21:12:27 437.568
YUBILEINY 17 Oct 21:06:10 21:15:01 82° 81° (E) 21:23:51 435.215
Oscar 11 17 Oct 21:07:46 21:11:52 40° 262° (W) 21:15:59 .
UNISAT 6 17 Oct 21:23:51 21:25:33 12° 87° (E) 21:27:14 437.425
TIGRISAT 17 Oct 21:38:39 21:41:26 16° 89° (E) 21:44:10 435.000
AO-73 17 Oct 21:43:09 21:45:48 15° 271° (W) 21:48:27 145.935
AO-85 17 Oct 21:43:45 21:47:45 32° 43° (NE) 21:52:01 145.980
FO-29 17 Oct 21:58:47 22:05:28 85° 105° (ESE) 22:12:56 435.910
BEESAT 2 17 Oct 22:08:03 22:12:05 58° 50° (NE) 22:16:02 435.950
EO-88 17 Oct 22:08:27 22:12:05 63° 260° (W) 22:15:43 145.990 - 145.960
Max Valier Satellite 17 Oct 22:11:16 22:14:50 43° 262° (W) 22:18:25 145.860
DELFI C3 17 Oct 22:13:03 22:16:33 31° 264° (W) 22:20:05 145.870
O/OREOS (USA 219) 17 Oct 22:22:04 22:26:27 45° 301° (WNW) 22:30:53 437.305
BEESAT 3 17 Oct 22:32:46 22:36:08 27° 244° (WSW) 22:39:27 437.485
ESTCUBE 1 17 Oct 22:40:56 22:44:57 33° 67° (ENE) 22:49:00 437.505/2401.250
UNISAT 6 17 Oct 22:58:12 23:02:53 83° 285° (WNW) 23:07:27 437.425
